[[{"header":{"parameterUnit":"m.s-1","parameterCategory":1,"la1":30.2991,"la2":30.254,"lo1":-89.0895,"lo2":-89.0444,"dy":0.0017,"dx":0.0017,"nx":28,"ny":28,"refTime":"2024-11-27T03:00:00:Z","depth":0,"parameterNumber":2,"parameterNumberName":"U-component_of_WINDS"},"data":[0,0,0,0,0,0,0,0,0,0,0,0,0,0,0,0,0,0,0,0,0,0,0,0,0,0,0,0,0,0,0,0,0,0,0,0,0,0,0,0,0,0,0,0,0,0,0,0,0,0,0,0,0,0,0,0,0,0,-1.2616,-1.2616,0,-1.2605,-1.2605,-1.2604,-1.2564,-1.2563,-1.2562,-1.2561,-1.2551,-1.2551,-1.2552,0,0,0,0,0,0,0,0,0,0,0,0,0,-1.2604,-1.2605,-1.2616,-1.2616,-1.2616,-1.2605,-1.2605,-1.2604,-1.2564,-1.2563,-1.2562,-1.2561,-1.255,-1.2551,-1.2552,0,0,0,0,0,0,0,0,0,0,0,0,0,-1.2603,-1.2605,-1.2616,-1.2595,-1.2592,-1.2605,-1.2605,-1.2604,-1.2564,-1.2563,-1.2561,-1.256,-1.255,-1.2551,-1.2552,-1.2585,0,0,-1.2555,-1.2555,0,0,0,0,0,0,0,0,-1.2603,-1.2603,-1.2598,-1.2596,-1.2594,-1.2584,-1.2596,-1.2598,-1.2565,-1.2575,-1.2561,-1.2559,-1.2563,-1.2563,-1.2564,-1.2584,-1.2584,-1.2555,-1.2555,-1.2556,-1.2556,0,0,0,0,0,0,0,-1.2603,-1.2604,-1.2612,-1.2598,-1.2595,-1.2585,-1.2584,-1.2597,-1.2577,-1.2574,-1.2571,-1.257,-1.2562,-1.2563,-1.2563,-1.2584,-1.2555,-1.2555,-1.2556,-1.2556,-1.263,-1.2631,0,0,0,0,0,0,-1.2606,-1.2604,-1.2612,-1.2611,-1.2595,-1.2587,-1.2585,-1.2589,-1.2577,-1.2573,-1.2571,-1.2568,-1.2562,-1.2562,-1.2563,-1.26,-1.2556,-1.2556,-1.2557,-1.2628,-1.263,-1.2632,0,0,0,0,0,0,-1.2606,-1.2607,-1.2613,-1.2607,-1.2607,-1.2588,-1.2593,-1.2589,-1.259,-1.2575,-1.2571,-1.2576,-1.2561,-1.2561,-1.2579,-1.2599,-1.2557,-1.2558,-1.2627,-1.2629,-1.2631,-1.2675,0,0,0,0,0,0,-1.2606,-1.2608,-1.262,-1.2607,-1.2607,-1.263,-1.2594,-1.259,-1.2592,-1.2588,-1.2578,-1.2575,-1.256,-1.2578,-1.258,-1.2599,-1.2558,-1.2625,-1.2628,-1.263,-1.2672,-1.2679,-1.2684,0,0,0,0,0,-1.2606,-1.2633,-1.2621,-1.2622,-1.2622,-1.2631,-1.2631,-1.2612,-1.2594,-1.2606,-1.2595,-1.2576,-1.2596,-1.258,-1.2582,-1.2602,-1.2624,-1.2627,-1.263,-1.2669,-1.2677,-1.2684,0,0,0,0,0,0,-1.265,-1.2632,-1.2617,-1.2642,-1.2638,-1.2624,-1.2639,-1.2621,-1.2623,-1.262,-1.2597,-1.2595,-1.2616,-1.2611,-1.2593,-1.2633,-1.2607,-1.261,-1.2636,-1.2643,-1.2649,-1.265,-1.2559,0,0,0,0,0,-1.2662,-1.267,-1.2654,-1.2677,-1.2676,-1.2658,-1.2661,-1.2647,-1.2642,-1.2641,-1.2631,-1.2628,-1.2634,-1.2638,-1.2642,-1.2671,-1.2668,-1.2685,-1.2691,-1.2696,-1.27,-1.2714,-1.2721,-1.2642,-1.2642,-1.2642,0,0,-1.2688,-1.2679,-1.2686,-1.2686,-1.2681,-1.269,-1.2657,-1.2668,-1.2675,-1.2642,-1.2659,-1.2652,-1.2646,-1.2669,-1.2679,-1.2666,-1.2721,-1.27,-1.2705,-1.2706,-1.2718,-1.2725,-1.2732,-1.2645,-1.2644,-1.2644,0,0,-1.274,-1.2734,-1.2752,-1.2748,-1.2741,-1.2729,-1.2733,-1.2721,-1.2715,-1.2731,-1.2707,-1.2714,-1.2725,-1.2721,-1.2721,-1.2771,-1.2752,-1.2773,-1.2805,-1.2819,-1.2825,-1.283,-1.2848,-1.2854,-1.2776,-1.2776,-1.2776,0,-1.2774,-1.2786,-1.2764,-1.2777,-1.2777,-1.2747,-1.2765,-1.2762,-1.2758,-1.2759,-1.2744,-1.2755,-1.2749,-1.2771,-1.2783,-1.2784,-1.2788,-1.2774,-1.2826,-1.2831,-1.2836,-1.2852,-1.2859,-1.2779,-1.2779,-1.2778,-1.2778,0,-1.2827,-1.2836,-1.2852,-1.2847,-1.2849,-1.2864,-1.2845,-1.285,-1.2835,-1.2824,-1.284,-1.2832,-1.2833,-1.2837,-1.2823,-1.2857,-1.2848,-1.283,-1.2803,-1.2846,-1.2861,-1.2867,-1.2782,-1.2782,-1.2781,-1.278,0,0,-1.2908,-1.289,-1.2896,-1.2893,-1.2882,-1.2889,-1.2902,-1.2903,-1.2908,-1.2905,-1.2916,-1.2925,-1.2907,-1.2907,-1.2892,-1.2904,-1.2943,-1.2884,-1.2883,-1.2895,-1.2979,-1.2993,-1.3001,-1.293,-1.2931,-1.2932,-1.2979,0,-1.2957,-1.2979,-1.2959,-1.2985,-1.2993,-1.2964,-1.2976,-1.2971,-1.2961,-1.2966,-1.2954,-1.2961,-1.2937,-1.2937,-1.2947,-1.2936,-1.296,-1.2932,-1.294,-1.2941,-1.2943,-1.3008,-1.3024,-1.3068,-1.2985,-1.2986,-1.2986,0,-1.3018,-1.3017,-1.3044,-1.303,-1.3033,-1.3044,-1.3043,-1.3048,-1.3041,-1.3033,-1.3032,-1.3013,-1.3026,-1.2999,-1.3015,-1.2997,-1.2999,-1.2994,-1.2995,-1.2996,-1.2967,-1.3011,-1.3082,-1.3089,-1.2995,-1.2995,-1.2994,0,-1.3074,-1.308,-1.3096,-1.3094,-1.3079,-1.3088,-1.3082,-1.3074,-1.3075,-1.3074,-1.3075,-1.3075,-1.3076,-1.3077,-1.3059,-1.3041,-1.3077,-1.3049,-1.3071,-1.3071,-1.308,-1.308,-1.3153,-1.3081,-1.3081,-1.3081,-1.3081,0,-1.3132,-1.3149,-1.3121,-1.3131,-1.3149,-1.3126,-1.3145,-1.3136,-1.3129,-1.3137,-1.3112,-1.312,-1.3095,-1.31,-1.3086,-1.3102,-1.3102,-1.3096,-1.3092,-1.3098,-1.3099,-1.31,-1.3096,-1.3083,-1.3082,-1.3082,-1.3082,0,-1.3198,-1.318,-1.3195,-1.3179,-1.3176,-1.319,-1.3176,-1.3185,-1.3172,-1.3183,-1.3184,-1.3165,-1.3169,-1.3151,-1.3153,-1.3143,-1.3167,-1.3157,-1.3169,-1.3166,-1.3189,-1.3187,-1.3265,-1.3274,-1.3196,-1.3197,-1.3198,0,-1.3236,-1.3249,-1.3233,-1.3237,-1.3232,-1.3237,-1.3238,-1.3216,-1.3218,-1.321,-1.322,-1.3222,-1.3223,-1.3232,-1.3218,-1.3219,-1.321,-1.3237,-1.321,-1.3216,-1.3211,-1.321,-1.3211,-1.3244,-1.3245,-1.3245,-1.3246,0,-1.3306,-1.3296,-1.3298,-1.3297,-1.3298,-1.3297,-1.3293,-1.3297,-1.3272,-1.3276,-1.328,-1.3281,-1.3282,-1.3285,-1.3283,-1.3277,-1.3257,-1.3254,-1.3259,-1.3266,-1.3273,-1.3269,-1.3185,-1.3253,-1.3252,-1.3252,-1.3251,-1.3251,-1.3359,-1.3369,-1.3359,-1.3362,-1.3357,-1.3354,-1.3361,-1.3349,-1.3352,-1.335,-1.3337,-1.3344,-1.3335,-1.333,-1.3326,-1.3331,-1.3318,-1.3326,-1.3328,-1.333,-1.3334,-1.3271,-1.3331,-1.333,-1.333,-1.333,-1.333,0,-1.3427,-1.3419,-1.3422,-1.3418,-1.342,-1.34,-1.3395,-1.3398,-1.3405,-1.3398,-1.3399,-1.3404,-1.3406,-1.3392,-1.3392,-1.3398,-1.339,-1.3399,-1.3399,-1.3398,-1.3345,-1.3341,-1.3406,-1.3406,-1.3406,-1.3406,-1.3406,-1.3406,-1.3463,-1.3478,-1.3467,-1.3478,-1.347,-1.3476,-1.3475,-1.3472,-1.3466,-1.3472,-1.3474,-1.3464,-1.3455,-1.3454,-1.3455,-1.345,-1.3452,-1.3465,-1.3458,-1.3409,-1.3402,-1.3394,-1.339,-1.3465,-1.3465,-1.3509,-1.351,-1.351]},{"header":{"parameterUnit":"m.s-1","parameterCategory":1,"la1":30.2991,"la2":30.254,"lo1":-89.0895,"lo2":-89.0444,"dy":0.0017,"dx":0.0017,"nx":28,"ny":28,"refTime":"2024-11-27T03:00:00:Z","depth":0,"parameterNumber":3,"parameterNumberName":"V-component_of_WINDS"},"data":[0,0,0,0,0,0,0,0,0,0,0,0,0,0,0,0,0,0,0,0,0,0,0,0,0,0,0,0,0,0,0,0,0,0,0,0,0,0,0,0,0,0,0,0,0,0,0,0,0,0,0,0,0,0,0,0,0,0,-1.402,-1.402,0,-1.4031,-1.4031,-1.4031,-1.4004,-1.4003,-1.4002,-1.4001,-1.4012,-1.4013,-1.4014,0,0,0,0,0,0,0,0,0,0,0,0,0,-1.3974,-1.3975,-1.402,-1.402,-1.402,-1.4031,-1.4031,-1.4031,-1.4004,-1.4003,-1.4002,-1.4001,-1.4012,-1.4013,-1.4015,0,0,0,0,0,0,0,0,0,0,0,0,0,-1.3991,-1.3976,-1.402,-1.4008,-1.4007,-1.4031,-1.4031,-1.4031,-1.4004,-1.4003,-1.4002,-1.4,-1.4012,-1.4013,-1.4015,-1.4051,0,0,-1.402,-1.402,0,0,0,0,0,0,0,0,-1.399,-1.3992,-1.401,-1.4009,-1.4008,-1.4015,-1.4019,-1.4038,-1.4005,-1.4005,-1.4001,-1.4,-1.4014,-1.4015,-1.402,-1.4051,-1.4052,-1.402,-1.4021,-1.4022,-1.4022,0,0,0,0,0,0,0,-1.3989,-1.3992,-1.4024,-1.401,-1.4009,-1.4002,-1.4003,-1.4022,-1.4017,-1.4005,-1.4003,-1.4005,-1.4013,-1.4019,-1.402,-1.4052,-1.402,-1.4021,-1.4022,-1.4023,-1.4112,-1.4113,0,0,0,0,0,0,-1.3989,-1.3991,-1.4024,-1.4025,-1.3995,-1.4004,-1.4005,-1.4014,-1.4017,-1.4016,-1.4006,-1.4004,-1.4017,-1.4019,-1.4021,-1.4063,-1.4022,-1.4023,-1.4024,-1.4111,-1.4112,-1.4114,0,0,0,0,0,0,-1.3988,-1.3992,-1.4024,-1.4007,-1.4011,-1.4006,-1.4016,-1.4015,-1.402,-1.4017,-1.4016,-1.4013,-1.4016,-1.4018,-1.4043,-1.4063,-1.4024,-1.4025,-1.4109,-1.4111,-1.4113,-1.4147,0,0,0,0,0,0,-1.3987,-1.3992,-1.4006,-1.4008,-1.4012,-1.4047,-1.4018,-1.4016,-1.4023,-1.402,-1.4023,-1.4022,-1.4015,-1.4041,-1.4045,-1.4064,-1.4027,-1.4107,-1.411,-1.4112,-1.4145,-1.415,-1.4155,0,0,0,0,0,-1.3986,-1.4016,-1.4007,-1.4011,-1.4029,-1.4048,-1.405,-1.4041,-1.4025,-1.4039,-1.4037,-1.4022,-1.406,-1.4044,-1.4048,-1.4068,-1.4106,-1.4109,-1.4112,-1.4142,-1.4149,-1.4155,0,0,0,0,0,0,-1.4016,-1.4016,-1.4006,-1.4038,-1.4043,-1.4043,-1.406,-1.4049,-1.4059,-1.4055,-1.4043,-1.4044,-1.4071,-1.4072,-1.4054,-1.4103,-1.408,-1.4084,-1.4101,-1.4108,-1.4114,-1.4113,-1.4028,0,0,0,0,0,-1.4027,-1.4042,-1.4041,-1.4068,-1.4072,-1.4066,-1.4073,-1.4066,-1.4071,-1.4073,-1.4072,-1.4078,-1.409,-1.4099,-1.4111,-1.4144,-1.4144,-1.416,-1.4166,-1.417,-1.4174,-1.4191,-1.4198,-1.4124,-1.4124,-1.4124,0,0,-1.4049,-1.405,-1.4061,-1.4075,-1.4078,-1.4094,-1.4068,-1.4086,-1.4097,-1.4075,-1.4099,-1.4099,-1.4104,-1.4133,-1.4146,-1.4134,-1.4194,-1.4174,-1.4178,-1.4179,-1.4195,-1.4202,-1.4208,-1.4126,-1.4126,-1.4125,0,0,-1.4097,-1.4099,-1.4123,-1.4126,-1.4131,-1.4127,-1.4133,-1.4134,-1.4133,-1.4157,-1.4141,-1.4154,-1.4176,-1.4181,-1.4186,-1.4234,-1.4221,-1.4238,-1.4267,-1.4284,-1.4289,-1.4294,-1.4312,-1.4318,-1.4242,-1.4242,-1.4242,0,-1.4123,-1.4147,-1.4136,-1.4155,-1.4162,-1.4142,-1.4166,-1.4169,-1.4178,-1.4183,-1.417,-1.4197,-1.4199,-1.4229,-1.4241,-1.4245,-1.4251,-1.4238,-1.4289,-1.4294,-1.4299,-1.4315,-1.4322,-1.4244,-1.4244,-1.4243,-1.4243,0,-1.4179,-1.4195,-1.4214,-1.4222,-1.4231,-1.4252,-1.4244,-1.4254,-1.4245,-1.4242,-1.4265,-1.4267,-1.4278,-1.4285,-1.4277,-1.4313,-1.4306,-1.4291,-1.4269,-1.4308,-1.4323,-1.4329,-1.4247,-1.4246,-1.4245,-1.4245,0,0,-1.4248,-1.425,-1.4256,-1.426,-1.4264,-1.4276,-1.4296,-1.4307,-1.4315,-1.4322,-1.4338,-1.4357,-1.4343,-1.4349,-1.4341,-1.4356,-1.4394,-1.4339,-1.4339,-1.4349,-1.4434,-1.4445,-1.4452,-1.4385,-1.4386,-1.4387,-1.4433,0,-1.4295,-1.4329,-1.432,-1.4354,-1.4369,-1.435,-1.4367,-1.4371,-1.4368,-1.438,-1.4377,-1.4391,-1.4372,-1.4375,-1.4389,-1.4386,-1.441,-1.4383,-1.44,-1.44,-1.4399,-1.446,-1.4472,-1.4516,-1.4439,-1.444,-1.4441,0,-1.4355,-1.4364,-1.4399,-1.44,-1.4406,-1.4421,-1.443,-1.4442,-1.4446,-1.4443,-1.4449,-1.4437,-1.4456,-1.4433,-1.4459,-1.444,-1.4446,-1.4446,-1.4447,-1.4449,-1.4423,-1.4463,-1.4529,-1.4536,-1.445,-1.4449,-1.4448,0,-1.4402,-1.4422,-1.4446,-1.4449,-1.445,-1.4462,-1.4463,-1.4465,-1.4472,-1.448,-1.4484,-1.4494,-1.45,-1.4508,-1.4499,-1.4483,-1.4526,-1.4502,-1.4524,-1.4524,-1.4535,-1.4534,-1.4603,-1.4538,-1.4538,-1.4538,-1.4538,0,-1.4456,-1.4478,-1.4466,-1.4481,-1.4506,-1.4494,-1.4518,-1.4517,-1.4519,-1.4533,-1.4517,-1.4531,-1.4519,-1.4531,-1.4524,-1.4546,-1.4549,-1.4547,-1.4545,-1.4548,-1.4549,-1.4553,-1.455,-1.454,-1.4539,-1.4539,-1.4539,0,-1.4512,-1.4505,-1.453,-1.4529,-1.4529,-1.4547,-1.4546,-1.4559,-1.4555,-1.4573,-1.4576,-1.4569,-1.4583,-1.4575,-1.4589,-1.4584,-1.4613,-1.4607,-1.4612,-1.461,-1.4633,-1.4631,-1.4707,-1.4716,-1.4645,-1.4646,-1.4646,0,-1.4547,-1.4564,-1.4565,-1.4573,-1.4575,-1.4588,-1.4595,-1.4584,-1.4592,-1.4597,-1.461,-1.4621,-1.463,-1.4652,-1.4649,-1.4659,-1.4653,-1.4679,-1.4654,-1.4657,-1.4653,-1.4653,-1.4654,-1.4684,-1.4685,-1.4685,-1.4686,0,-1.4611,-1.4606,-1.4617,-1.4626,-1.4635,-1.4642,-1.4647,-1.4655,-1.4644,-1.4653,-1.4666,-1.4673,-1.4687,-1.4699,-1.4707,-1.4708,-1.4695,-1.4693,-1.4699,-1.4703,-1.4706,-1.4705,-1.4626,-1.4692,-1.4691,-1.4691,-1.4691,-1.469,-1.4658,-1.4672,-1.4674,-1.4686,-1.4689,-1.4694,-1.4707,-1.4704,-1.4715,-1.4725,-1.4717,-1.4733,-1.4736,-1.4746,-1.4748,-1.476,-1.4749,-1.4757,-1.476,-1.4762,-1.4765,-1.4703,-1.4761,-1.4761,-1.4761,-1.4761,-1.476,0,-1.472,-1.472,-1.4732,-1.474,-1.4749,-1.4736,-1.4741,-1.475,-1.4764,-1.4767,-1.4776,-1.4791,-1.4803,-1.48,-1.481,-1.482,-1.4814,-1.4823,-1.4822,-1.4822,-1.4774,-1.4768,-1.4827,-1.4827,-1.4827,-1.4827,-1.4827,-1.4827,-1.4754,-1.4777,-1.4772,-1.4796,-1.4796,-1.4811,-1.4815,-1.482,-1.4822,-1.484,-1.4849,-1.4847,-1.4847,-1.4857,-1.4867,-1.4866,-1.487,-1.4881,-1.4878,-1.4832,-1.4826,-1.482,-1.4814,-1.4882,-1.4882,-1.4925,-1.4926,-1.4926]}]]